Mumbai, India

3:42 AM IST on April 22, 2018 (GMT +0530)
Chhatrapati Shivaji International

Weather History for VABB - February, 2013

Change the Weather History Date:

Wednesday, February 27, 2013

  Actual Average Record
Temperature  
Mean Temperature 74 °F -  
Max Temperature 85 °F 89 °F 100 °F (1999)
Min Temperature 64 °F 71 °F 60 °F (2015)
Cooling Degree Days 10    
Growing Degree Days 24 (Base 50)    
Moisture  
Dew Point 64 °F    
Average Humidity 63    
Maximum Humidity 87    
Minimum Humidity 40    
Precipitation  
Precipitation 0.00 in - - ()
Sea Level Pressure  
Sea Level Pressure 29.96 in    
Wind  
Wind Speed 4 mph ()    
Max Wind Speed 13 mph    
Max Gust Speed -    
Visibility 2.1 miles    
Events      
Averages and records for this station are not official NWS values.
T = Trace of Precipitation, MM = Missing Value Source: Averaged Metar Reports

Daily Weather History Graph

Daily Weather History Graph

Search for Another Location

Airport or City:

Astronomy

Feb. 27, 2013 Rise Set
Actual Time 6:59 AM IST 6:43 PM IST
Civil Twilight 6:37 AM IST 7:05 PM IST
Nautical Twilight 6:11 AM IST 7:31 PM IST
Astronomical Twilight 5:46 AM IST 7:56 PM IST
Moon 8:11 PM IST (2/27) 7:38 AM IST (2/27)
Length of Visible Light 12h 28m
Length of Day
11h 44m
Full, 98% of the Moon is Illuminated
Feb 27
Full
Mar 5
Last Quarter
Mar 12
New
Mar 19
First Quarter
Mar 27
Full

Hourly Weather History & Observations

Time (IST) Temp. Heat Index Dew Point Humidity Pressure Visibility Wind Dir Wind Speed Gust Speed Precip Events Conditions
12:10 AM 75.2 °F - 66.2 °F 73% 29.98 in 2.5 mi Calm Calm - N/A   Haze
12:40 AM 75.2 °F - 66.2 °F 73% 29.98 in 2.5 mi NNE 3.5 mph - N/A   Haze
1:10 AM 75.2 °F - 66.2 °F 73% 29.95 in 2.5 mi NE 3.5 mph - N/A   Haze
1:40 AM 73.4 °F - 66.2 °F 78% 29.95 in 2.5 mi ENE 3.5 mph - N/A   Haze
2:10 AM 73.4 °F - 66.2 °F 78% 29.95 in 2.2 mi Calm Calm - N/A   Haze
2:30 AM 67 °F - 64 °F 86% 29.95 in 1 mi Calm Calm - -   Haze
2:40 AM 73.4 °F - 66.2 °F 78% 29.95 in 2.2 mi North 4.6 mph - N/A   Haze
3:10 AM 73.4 °F - 66.2 °F 78% 29.95 in - NE 3.5 mph - N/A   Haze
4:10 AM 73.4 °F - 68.0 °F 83% 29.95 in 1.9 mi Calm Calm - N/A   Haze
4:40 AM 73.4 °F - 66.2 °F 78% 29.95 in 1.9 mi NNE 5.8 mph - N/A   Haze
5:10 AM 73.4 °F - 68.0 °F 83% 29.95 in 1.9 mi ENE 3.5 mph - N/A   Haze
5:30 AM 67 °F - 64 °F 87% 29.95 in 1 mi Calm Calm - -   Haze
5:40 AM 73.4 °F - 68.0 °F 83% 29.95 in 1.9 mi ENE 4.6 mph - N/A   Haze
6:10 AM 73.4 °F - 68.0 °F 83% 29.95 in 1.9 mi ENE 4.6 mph - N/A   Haze
6:40 AM 73.4 °F - 68.0 °F 83% 29.98 in 1.9 mi NE 6.9 mph - N/A   Haze
7:10 AM 73.4 °F - 68.0 °F 83% 29.98 in 1.9 mi NNE 4.6 mph - N/A   Haze
7:40 AM 73.4 °F - 66.2 °F 78% 29.98 in 1.9 mi ENE 3.5 mph - N/A   Haze
8:10 AM 75.2 °F - 66.2 °F 73% 30.01 in 1.9 mi North 4.6 mph - N/A   Haze
8:30 AM 71 °F - 67 °F 82% 30.01 in 1 mi North 3.5 mph - -   Haze
8:40 AM 77.0 °F - 64.4 °F 65% 30.01 in 1.9 mi NNE 6.9 mph - N/A   Smoke
9:10 AM 77.0 °F - 64.4 °F 65% 30.04 in 1.9 mi NNE 8.1 mph - N/A   Smoke
9:40 AM 78.8 °F - 62.6 °F 57% 30.04 in 1.9 mi NNW 8.1 mph - N/A   Smoke
10:10 AM 78.8 °F - 62.6 °F 57% 30.04 in 2.2 mi NNW 3.5 mph - N/A   Smoke
10:40 AM 80.6 °F 81.5 °F 60.8 °F 51% 30.04 in 2.2 mi NNW 6.9 mph - N/A   Smoke
11:10 AM 82.4 °F 83.4 °F 62.6 °F 51% 30.04 in 2.2 mi NW 5.8 mph - N/A   Smoke
11:40 AM 82.4 °F 82.5 °F 59.0 °F 45% 30.01 in 2.2 mi WNW 3.5 mph - N/A   Smoke
12:10 PM 84.2 °F 84.4 °F 60.8 °F 45% 30.01 in 2.2 mi WNW 6.9 mph - N/A   Smoke
12:40 PM 82.4 °F 83.4 °F 62.6 °F 51% 29.98 in 2.2 mi West 11.5 mph - N/A   Smoke
1:10 PM 82.4 °F 83.4 °F 62.6 °F 51% 29.98 in 2.5 mi WNW 11.5 mph - N/A   Smoke
2:10 PM 82.4 °F 83.4 °F 62.6 °F 51% 29.92 in 3.1 mi WNW 9.2 mph - N/A   Smoke
2:30 PM 85 °F - 64 °F 40% 29.93 in 1 mi NW 4.6 mph - -   Clear
2:40 PM 84.2 °F 85.6 °F 64.4 °F 51% 29.92 in 3.1 mi West 12.7 mph - N/A   Smoke
3:10 PM 84.2 °F 85.6 °F 64.4 °F 51% 29.92 in 3.1 mi West 12.7 mph - N/A   Smoke
3:40 PM 82.4 °F 83.9 °F 64.4 °F 54% 29.92 in 3.1 mi WNW 11.5 mph - N/A   Smoke
4:10 PM 84.2 °F 85.6 °F 64.4 °F 51% 29.92 in 3.1 mi WNW 10.4 mph - N/A   Smoke
4:40 PM 82.4 °F 83.9 °F 64.4 °F 54% 29.92 in 2.8 mi WNW 11.5 mph - N/A   Smoke
5:10 PM 82.4 °F 83.4 °F 62.6 °F 51% 29.92 in 2.5 mi NW 11.5 mph - N/A   Smoke
5:30 PM 81 °F - 63 °F 45% 29.91 in 1 mi NNW 9.2 mph - -   Smoke
5:40 PM 80.6 °F 82.3 °F 64.4 °F 58% 29.92 in 2.5 mi NW 9.2 mph - N/A   Smoke
6:10 PM 80.6 °F 82.3 °F 64.4 °F 58% 29.92 in 2.5 mi NW 6.9 mph - N/A   Smoke
6:40 PM 78.8 °F - 64.4 °F 61% 29.92 in 2.5 mi NW 5.8 mph - N/A   Smoke
7:10 PM 78.8 °F - 64.4 °F 61% 29.92 in 2.2 mi NW 6.9 mph - N/A   Smoke
7:40 PM 78.8 °F - 62.6 °F 57% 29.92 in 2.2 mi NW 6.9 mph - N/A   Smoke
8:10 PM 78.8 °F - 64.4 °F 61% 29.95 in 2.2 mi NW 5.8 mph - N/A   Smoke
8:30 PM 77 °F - 63 °F 54% 29.94 in 1 mi NNW 6.9 mph - -   Smoke
8:40 PM 78.8 °F - 62.6 °F 57% 29.95 in 2.2 mi NNW 3.5 mph - N/A   Smoke
9:10 PM 78.8 °F - 62.6 °F 57% 29.95 in 2.2 mi North 6.9 mph - N/A   Smoke
9:40 PM 78.8 °F - 60.8 °F 54% 29.95 in 2.2 mi NNW 6.9 mph - N/A   Smoke
10:10 PM 78.8 °F - 60.8 °F 54% 29.95 in 2.2 mi NNE 3.5 mph - N/A   Smoke
10:40 PM 77.0 °F - 59.0 °F 54% 29.95 in 2.2 mi NNW 5.8 mph - N/A   Smoke
11:10 PM 77.0 °F - 59.0 °F 54% 29.95 in 2.2 mi Calm Calm - N/A   Smoke
11:40 PM 77.0 °F - 59.0 °F 54% 29.95 in 2.2 mi NW 4.6 mph - N/A   Smoke